1495296001.14,1197,20.63,73882.5,3.81,3.59,3.59,0,*49
1495296002.31,1198,20.63,73894.8,3.81,3.59,3.59,0,*46
1495296003.53,1199,20.69,73894.8,3.81,3.67,3.67,0,*47
1495296004.75,1200,20.63,73880.5,3.81,3.71,3.71,0,*44
1495296006.01,1201,20.63,73880.3,3.83,3.75,3.75,0,*47
1495296007.26,1202,20.63,73890.8,3.83,3.75,3.75,0,*44
1495296008.51,1203,20.63,73886.0,3.83,3.75,3.71,0,*41
1495296009.73,1204,20.63,73880.5,3.83,3.63,3.75,0,*45
1495296010.98,1205,20.63,73880.3,3.83,3.75,3.75,0,*43
1495296012.2,1206,20.63,73890.0,3.85,3.71,3.75,0,*42
1495296013.43,1207,20.63,73890.5,3.85,3.75,3.75,0,*47
1495296014.62,1208,20.63,73890.0,3.85,3.75,3.85,0,*47
1495296015.85,1209,20.63,73886.0,3.83,3.75,3.81,0,*44
1495296017.1,1210,20.63,73900.5,3.83,3.75,3.75,0,*47
1495296018.33,1211,20.63,73896.3,3.85,3.75,3.75,0,*40
1495296019.58,1212,20.63,73894.0,3.83,3.71,3.75,0,*41
1495296020.8,1213,20.63,73890.8,3.85,3.71,3.71,0,*42
1495296022.03,1214,20.63,73894.0,3.85,3.75,3.75,0,*45
1495296023.25,1215,20.63,73892.5,3.85,3.75,3.75,0,*44
1495296024.48,1216,20.63,73896.5,3.85,3.75,3.75,0,*47
1495296025.7,1217,20.63,73890.0,3.85,3.71,3.75,0,*42
1495296026.9,1218,20.63,73884.3,3.85,3.63,3.71,0,*4A
1495296028.13,1219,20.63,73878.3,3.85,3.75,3.75,0,*48
1495296029.37,1220,20.63,73876.8,3.87,3.75,3.79,0,*4C
1495296030.62,1221,20.63,73876.5,3.87,3.75,3.75,0,*41
1495296031.87,1222,20.63,73886.3,3.87,3.79,3.75,0,*4E
1495296033.06,1223,20.63,73886.5,3.87,3.63,3.63,0,*43
1495296034.29,1224,20.63,73900.8,3.89,3.67,3.67,0,*4A
1495296035.54,1225,20.63,73896.5,3.87,3.67,3.75,0,*46
1495296036.79,1226,20.63,73900.0,3.87,3.75,3.75,0,*46
1495296038.03,1227,20.63,73888.3,3.87,3.67,3.67,0,*47
1495296039.23,1228,20.63,73890.0,3.89,3.63,3.67,0,*42
1495296040.47,1229,20.63,73888.8,3.87,3.75,3.67,0,*4A
1495296041.7,1230,20.63,73886.3,3.89,3.75,3.67,0,*4C
1495296042.93,1231,20.63,73886.5,3.89,3.67,3.75,0,*4D
1495296044.18,1232,20.63,73884.0,3.87,3.75,3.75,0,*43
1495296045.43,1233,20.63,73884.5,3.87,3.79,3.75,0,*4E
1495296046.65,1234,20.63,73886.3,3.89,3.79,3.79,0,*4B
1495296047.88,1235,20.63,73882.5,3.89,3.79,3.79,0,*4A
1495296049.07,1236,20.63,73884.3,3.89,3.85,3.79,0,*4A
1495296050.27,1237,20.63,73886.0,3.89,3.85,3.79,0,*4B
1495296051.49,1238,20.63,73884.5,3.89,3.79,3.79,0,*47
1495296052.69,1239,20.63,73886.5,3.89,3.85,3.79,0,*45
1495296053.91,1240,20.63,73886.3,3.93,3.71,3.71,0,*43
1495296055.12,1241,20.63,73894.5,3.93,3.71,3.71,0,*42
1495296056.36,1242,20.63,73894.8,3.89,3.75,3.75,0,*4A
1495296057.58,1243,20.63,73888.8,3.89,3.79,3.79,0,*4B
1495296058.8,1244,20.63,73884.3,3.89,3.79,3.79,0,*4C
1495296060.03,1245,20.63,73894.3,3.89,3.79,3.79,0,*4D
1495296061.19,1246,20.63,73894.8,3.93,3.85,3.93,0,*42
1495296062.37,1247,20.63,73882.5,3.93,3.89,3.93,0,*4F
1495296063.54,1248,20.63,73886.0,3.93,3.89,3.93,0,*40
1495296064.74,1249,20.63,73896.3,3.95,3.93,3.93,0,*4C
1495296065.96,1250,20.63,73896.8,3.95,3.93,4.01,0,*48
1495296067.17,1251,20.63,73898.8,3.95,3.93,3.97,0,*41
1495296068.41,1252,20.63,73896.3,3.95,3.97,3.97,0,*46
1495296069.63,1253,20.63,73888.8,3.95,3.93,4.01,0,*4B
1495296070.87,1254,20.63,73890.8,3.95,4.01,3.97,0,*48
1495296072.11,1255,20.63,73888.0,3.95,3.97,3.97,0,*41
1495296073.31,1256,20.63,73886.0,3.95,3.93,3.93,0,*42
1495296074.5,1257,20.63,73882.0,3.95,3.93,3.93,0,*43
1495296075.71,1258,20.63,73878.8,3.97,3.93,3.93,0,*4E
1495296076.94,1259,20.63,73874.3,3.97,3.93,3.97,0,*4B
1495296078.16,1260,20.63,73882.5,3.99,3.97,3.97,0,*4B
1495296079.36,1261,20.63,73882.0,3.97,3.93,3.85,0,*43
1495296080.53,1262,20.63,73880.0,3.99,3.85,3.85,0,*49
1495296081.76,1263,20.63,73882.3,3.99,3.75,3.79,0,*44
1495296083.02,1264,20.63,73878.8,3.97,3.71,3.71,0,*41
1495296084.27,1265,20.63,73890.3,3.97,3.71,3.67,0,*47
1495296085.5,1266,20.63,73886.3,3.97,3.41,3.29,0,*4D
1495296086.7,1267,20.63,73874.0,3.97,3.25,3.29,0,*4E
1495296087.94,1268,20.63,73876.8,3.97,3.53,3.53,0,*4D
1495296089.14,1269,20.63,73872.8,3.99,3.63,3.67,0,*46
1495296090.38,1270,20.63,73874.8,3.97,3.49,3.53,0,*4F
1495296091.6,1271,20.63,73872.0,3.97,3.53,3.59,0,*4F
1495296092.85,1272,20.63,73866.3,3.97,3.49,3.53,0,*4D
1495296094.09,1273,20.63,73862.8,3.97,3.53,3.53,0,*47
1495296095.33,1274,20.63,73860.5,3.97,3.49,3.53,0,*4B
1495296096.54,1275,20.63,73862.8,3.95,3.59,3.53,0,*49
1495296097.73,1276,20.63,73866.5,3.95,3.63,3.63,0,*40
1495296098.93,1277,20.63,73868.8,3.97,3.59,3.59,0,*43
1495296100.13,1278,20.63,73872.5,3.97,3.59,3.59,0,*4C
1495296101.35,1279,20.63,73866.5,3.97,3.59,3.49,0,*4C
1495296102.6,1280,20.63,73866.3,3.97,3.53,3.49,0,*40
1495296103.8,1281,20.63,73868.3,3.97,3.63,3.63,0,*4A
1495296105.05,1282,20.63,73876.3,3.95,3.75,3.71,0,*4F
1495296106.24,1283,20.63,73870.8,3.97,3.63,3.63,0,*48
1495296107.5,1284,20.63,73882.8,3.97,3.71,3.71,0,*4F
1495296108.71,1285,20.63,73864.8,3.95,3.59,3.71,0,*46
1495296109.93,1286,20.63,73868.3,3.95,3.63,3.71,0,*4C
1495296111.18,1287,20.63,73872.0,3.97,3.71,3.71,0,*4C
1495296112.44,1288,20.63,73874.0,3.97,3.71,3.75,0,*47
1495296113.63,1289,20.63,73880.8,3.97,3.81,3.85,0,*46
1495296114.83,1290,20.63,73880.5,3.97,3.85,3.85,0,*4A
1495296116.03,1291,20.63,73878.3,3.97,3.81,3.81,0,*4B
1495296117.29,1292,20.63,73880.5,3.97,3.71,3.71,0,*48
1495296118.48,1293,20.63,73882.8,3.97,3.81,3.85,0,*4D
1495296119.69,1294,20.63,73882.5,3.97,3.81,3.81,0,*4E
1495296120.88,1295,20.63,73890.8,3.97,3.85,3.85,0,*4F
1495296122.09,1296,20.63,73892.3,3.97,3.85,3.93,0,*4B
1495296123.29,1297,20.63,73892.5,3.99,3.89,3.97,0,*4C
1495296124.47,1298,20.63,73888.3,3.99,3.93,3.93,0,*4C
1495296125.69,1299,20.63,73890.8,3.99,3.97,3.97,0,*4D
1495296126.94,1300,20.63,73888.0,3.97,3.97,4.01,0,*4A
1495296128.17,1301,20.63,73890.0,3.99,4.05,4.05,0,*4D
1495296129.39,1302,20.63,73890.5,3.99,3.97,3.97,0,*4E
1495296130.62,1303,20.63,73890.8,3.99,3.97,4.01,0,*47
1495296131.84,1304,20.63,73892.5,3.99,3.97,4.01,0,*40
1495296133.09,1305,20.63,73890.8,4.01,4.01,4.05,0,*4B
1495296134.34,1306,20.63,73890.0,4.01,4.05,4.05,0,*4C
1495296135.6,1307,20.63,73890.8,4.01,4.05,4.05,0,*4D
1495296136.82,1308,20.63,73890.3,4.03,4.05,4.05,0,*40
1495296138.0,1309,20.63,73888.3,4.03,4.07,4.07,0,*41
1495296139.2,1310,20.63,73892.3,4.03,4.05,4.07,0,*4B
1495296140.4,1311,20.63,73890.5,4.03,4.05,4.07,0,*4A
1495296141.61,1312,20.63,73880.8,4.05,4.07,4.07,0,*4D
1495296142.83,1313,20.63,73882.0,4.03,4.01,4.05,0,*4E
1495296144.05,1314,20.63,73884.5,4.03,4.01,4.05,0,*49
1495296145.25,1315,20.63,73876.0,4.05,4.11,4.07,0,*4D
1495296146.51,1316,20.63,73886.3,4.05,4.05,4.05,0,*49
1495296147.7,1317,20.63,73888.8,4.03,3.93,4.01,0,*42
1495296148.9,1318,20.63,73884.3,4.03,3.93,4.01,0,*4D
1495296150.12,1319,20.63,73876.5,4.03,4.01,4.01,0,*40
1495296151.36,1320,20.63,73876.5,4.05,3.97,4.05,0,*40
1495296152.59,1321,20.63,73878.5,4.05,3.93,4.05,0,*45
1495296153.82,1322,20.63,73880.5,4.05,3.93,3.97,0,*4A
1495296155.03,1323,20.63,73880.3,4.05,3.93,3.93,0,*4F
1495296156.25,1324,20.63,73880.3,4.05,3.63,3.75,0,*4F
1495296157.48,1325,20.63,73880.5,4.05,3.71,3.63,0,*4A
1495296158.7,1326,20.63,73886.8,4.03,3.71,3.71,0,*4C
1495296159.87,1327,20.63,73888.5,4.03,3.81,3.89,0,*45
1495296161.05,1328,20.63,73882.3,4.03,3.89,3.89,0,*42
1495296162.28,1329,20.63,73880.8,4.05,3.93,3.97,0,*41
1495296163.52,1330,20.63,73886.3,4.05,3.97,3.97,0,*4D
1495296164.77,1331,20.63,73886.3,4.05,3.97,3.97,0,*4C
1495296165.97,1332,20.63,73886.8,4.05,3.93,3.93,0,*4F
1495296167.19,1333,20.63,73890.3,4.07,3.97,3.97,0,*4C
1495296168.39,1334,20.63,73890.8,4.07,3.97,3.93,0,*4F
1495296169.56,1335,20.63,73890.5,4.07,3.81,3.85,0,*4E
1495296170.79,1336,20.63,73892.5,4.05,3.97,3.93,0,*4F
1495296172.03,1337,20.63,73886.3,4.05,3.97,3.97,0,*4A
1495296173.28,1338,20.63,73888.0,4.05,3.97,3.97,0,*45
1495296174.52,1339,20.63,73894.8,4.05,3.97,3.97,0,*44
1495296175.75,1340,20.63,73894.0,4.07,3.97,4.05,0,*44
1495296176.98,1341,20.63,73888.3,4.07,4.05,4.05,0,*49
1495296178.2,1342,20.63,73896.3,4.07,3.97,4.05,0,*46
1495296179.42,1343,20.63,73898.3,4.07,3.97,3.97,0,*4B
1495296180.6,1344,20.63,73896.3,4.07,3.93,3.81,0,*4F
1495296181.84,1345,20.63,73894.0,4.09,3.97,3.97,0,*43
1495296183.04,1346,20.63,73894.5,4.05,3.81,3.85,0,*48
1495296184.24,1347,20.63,73892.8,4.05,3.81,3.81,0,*4D
1495296185.41,1348,20.63,73894.3,4.07,3.81,3.85,0,*44
1495296186.61,1349,20.63,73890.0,4.07,3.93,3.97,0,*45
1495296187.83,1350,20.63,73894.3,4.07,3.97,3.97,0,*49
1495296189.05,1351,20.63,73892.5,4.07,3.97,3.97,0,*48
1495296190.28,1352,20.63,73894.0,4.07,4.05,4.05,0,*4B
1495296191.5,1353,20.63,73892.3,4.07,3.97,4.05,0,*46
1495296192.72,1354,20.63,73892.3,4.07,3.97,4.05,0,*41
1495296193.92,1355,20.63,73894.5,4.07,3.93,4.05,0,*44
1495296195.17,1356,20.63,73894.0,4.05,3.97,4.05,0,*41
1495296196.39,1357,20.63,73896.8,4.07,3.97,3.97,0,*4E
1495296197.61,1358,20.63,73898.5,4.07,3.97,3.97,0,*41
1495296198.86,1359,20.63,73898.8,4.09,4.01,4.01,0,*4E
1495296200.05,1360,20.63,73896.0,4.09,4.15,4.11,0,*40
1495296201.25,1361,20.63,73896.8,4.09,4.07,4.15,0,*46
1495296202.43,1362,20.63,73900.3,4.11,4.07,4.11,0,*48
1495296203.63,1363,20.63,73894.8,4.09,4.07,4.11,0,*40
1495296204.8,1364,20.63,73898.3,4.11,4.11,4.11,0,*49
1495296205.97,1365,20.63,73896.8,4.11,4.11,4.07,0,*4F
1495296207.17,1366,20.63,73892.5,4.13,4.19,4.19,0,*49
1495296208.34,1367,20.63,73888.5,4.11,4.15,4.11,0,*4E
1495296209.56,1368,20.63,73886.3,4.11,3.97,3.97,0,*45
1495296210.78,1369,20.63,73890.0,4.11,3.97,3.97,0,*44
1495296211.99,1370,20.63,73888.8,4.11,4.01,4.01,0,*4C
1495296213.21,1371,20.63,73890.0,4.11,4.01,4.01,0,*4D
1495296214.38,1372,20.63,73886.3,4.11,4.11,4.11,0,*4E
1495296215.59,1373,20.63,73890.5,4.09,4.07,4.07,0,*46
1495296216.81,1374,20.63,73888.0,4.11,4.01,4.01,0,*48
1495296218.02,1375,20.63,73888.8,4.11,4.01,4.01,0,*49
1495296219.28,1376,20.63,73894.0,4.13,4.05,4.05,0,*48
1495296220.5,1377,20.63,73888.0,4.13,4.05,4.11,0,*4C
1495296221.7,1378,20.63,73890.5,4.13,4.11,4.15,0,*42
1495296222.89,1379,20.63,73890.8,4.13,4.15,4.19,0,*4B
1495296224.09,1380,20.63,73888.0,4.13,4.11,4.11,0,*41
1495296225.28,1381,20.63,73890.8,4.13,4.11,4.11,0,*40
1495296226.48,1382,20.63,73890.5,4.13,4.19,4.15,0,*4F
1495296227.67,1383,20.63,73890.0,4.13,4.11,4.11,0,*42
1495296228.87,1384,20.63,73888.8,4.17,4.15,4.15,0,*41
1495296230.07,1385,20.63,73886.5,4.17,4.15,4.15,0,*40
1495296231.3,1386,20.63,73890.3,4.13,4.05,4.11,0,*42
1495296232.5,1387,20.63,73898.0,4.17,4.07,4.15,0,*41
1495296233.7,1388,20.63,73902.8,4.17,4.15,4.15,0,*4D
1495296234.92,1389,20.63,73900.0,4.17,4.05,4.15,0,*4D
1495296236.18,1390,20.63,73888.8,4.13,4.05,4.05,0,*40
1495296237.38,1391,20.63,73886.3,4.17,4.07,4.07,0,*45
1495296238.59,1392,20.63,73884.0,4.17,4.07,4.07,0,*46
1495296239.79,1393,20.63,73884.8,4.17,4.07,4.15,0,*44
1495296240.99,1394,20.63,73890.8,4.17,4.15,4.15,0,*40
1495296242.19,1395,20.63,73892.8,4.17,4.15,4.15,0,*41
1495296243.38,1396,20.63,73896.3,4.13,4.11,4.11,0,*46
1495296244.58,1397,20.63,73898.5,4.13,4.11,4.11,0,*47
1495296245.78,1398,20.63,73898.3,4.17,4.15,4.07,0,*4F
1495296246.99,1399,20.63,73892.0,4.17,4.07,4.07,0,*4D
1495296248.19,1400,20.63,73888.0,4.17,4.07,4.07,0,*4A
1495296249.39,1401,20.63,73890.8,4.17,4.15,4.15,0,*4B
1495296250.59,1402,20.63,73898.5,4.17,4.15,4.15,0,*48
1495296251.79,1403,20.63,73890.5,4.21,4.19,4.23,0,*45
1495296252.96,1404,20.63,73894.3,4.19,4.15,4.15,0,*40
1495296254.13,1405,20.63,73892.5,4.19,4.15,4.15,0,*41
1495296255.3,1406,20.63,73892.8,4.19,4.07,4.15,0,*41
1495296256.47,1407,20.63,73890.3,4.19,4.07,4.15,0,*40
1495296257.64,1408,20.63,73890.0,4.19,4.15,4.19,0,*40
1495296258.83,1409,20.63,73896.5,4.21,4.19,4.23,0,*4F
1495296260.0,1410,20.63,73894.3,4.19,4.19,4.23,0,*4C
1495296261.19,1411,20.63,73890.0,4.21,4.19,4.19,0,*4F
1495296262.38,1412,20.63,73894.5,4.21,4.19,4.19,0,*4C
1495296263.57,1413,20.63,73894.8,4.21,4.19,4.19,0,*4D
1495296264.77,1414,20.63,73900.3,4.21,4.11,4.19,0,*42
1495296265.96,1415,20.63,73906.8,4.21,4.11,4.19,0,*43
1495296267.18,1416,20.63,73898.8,4.21,3.97,3.85,0,*4B
1495296268.38,1417,20.63,73898.8,4.21,3.85,3.89,0,*45
1495296269.58,1418,20.63,73896.3,4.21,3.89,3.89,0,*46
1495296270.8,1419,20.63,73890.0,4.21,3.97,3.89,0,*48
1495296272.01,1420,20.63,73888.8,4.19,3.75,3.81,0,*4D
1495296273.23,1421,20.63,73874.8,4.19,3.71,3.75,0,*43
1495296274.48,1422,20.63,73882.5,4.21,3.79,3.79,0,*4F
1495296275.64,1423,20.63,73882.3,4.19,3.85,3.85,0,*45
1495296276.86,1424,20.63,73880.5,4.19,3.97,3.97,0,*42
1495296278.08,1425,20.63,73880.3,4.21,4.01,4.07,0,*4E
1495296279.27,1426,20.63,73884.5,4.21,4.11,4.11,0,*4B
1495296280.5,1427,20.63,73878.0,4.19,4.05,4.05,0,*41
1495296281.7,1428,20.63,73880.5,4.21,4.07,4.07,0,*45
1495296282.9,1429,20.63,73882.5,4.19,4.07,4.05,0,*4D
1495296284.1,1430,20.63,73880.5,4.21,4.11,4.11,0,*4C
1495296285.29,1431,20.63,73882.0,4.21,4.11,4.11,0,*4D
1495296286.49,1432,20.63,73890.3,4.21,4.11,4.11,0,*4E
1495296287.69,1433,20.63,73890.8,4.19,4.07,4.05,0,*46
1495296288.91,1434,20.63,73884.5,4.19,3.97,4.05,0,*4F
1495296290.12,1435,20.63,73882.8,4.19,3.97,3.97,0,*42
1495296291.32,1436,20.63,73884.0,4.21,4.11,4.11,0,*4A
1495296292.49,1437,20.63,73886.3,4.19,4.07,4.07,0,*40
1495296293.69,1438,20.63,73890.5,4.21,4.11,4.11,0,*44
1495296294.88,1439,20.63,73894.8,4.21,4.11,4.11,0,*45
1495296296.08,1440,20.63,73890.0,4.21,4.11,4.11,0,*4B
1495296297.27,1441,20.63,73888.5,4.21,4.19,4.23,0,*43
1495296298.47,1442,20.63,73882.3,4.21,4.19,4.23,0,*40
1495296299.64,1443,20.63,73888.5,4.19,4.15,4.15,0,*43
1495296300.83,1444,20.63,73890.0,4.21,4.19,4.19,0,*4F
1495296302.02,1445,20.63,73886.5,4.21,4.19,4.19,0,*4E
1495296303.19,1446,20.63,73884.8,4.23,4.11,4.19,0,*47
1495296304.35,1447,20.63,73884.0,4.23,4.11,4.19,0,*46
1495296305.52,1448,20.63,73884.0,4.23,4.11,4.19,0,*49
1495296306.71,1449,20.63,73884.8,4.25,4.15,4.27,0,*47
1495296307.88,1450,20.63,73890.0,4.23,4.07,4.11,0,*4F
1495296309.05,1451,20.63,73884.8,4.23,4.11,4.11,0,*49
1495296310.22,1452,20.63,73884.5,4.23,4.11,4.11,0,*4A
1495296311.46,1453,20.63,73888.5,4.25,3.97,4.05,0,*41
1495296312.64,1454,20.63,73882.8,4.23,3.89,3.89,0,*4C
1495296313.85,1455,20.63,73884.0,4.23,3.97,4.01,0,*45
1495296315.08,1456,20.63,73888.0,4.25,4.05,3.93,0,*40
1495296316.27,1457,20.63,73884.5,4.23,3.97,3.89,0,*40
1495296317.44,1458,20.63,73888.3,4.23,3.85,3.89,0,*4C
1495296318.66,1459,20.63,73890.8,4.23,3.97,4.01,0,*49
1495296319.91,1460,20.63,73888.3,4.25,4.05,4.05,0,*4D
1495296321.1,1461,20.63,73888.3,4.25,4.11,4.15,0,*48
1495296322.28,1462,20.63,73888.3,4.23,4.11,4.07,0,*4E
1495296323.45,1463,20.63,73886.8,4.23,4.07,4.11,0,*4F
1495296324.62,1464,20.63,73886.8,4.23,4.11,4.15,0,*4B
1495296325.81,1465,20.63,73884.0,4.23,4.01,4.07,0,*48
1495296326.98,1466,20.63,73888.5,4.23,4.11,4.11,0,*4D
1495296328.2,1467,20.63,73892.3,4.25,4.11,4.05,0,*4F
1495296329.4,1468,20.63,73900.5,4.23,4.07,4.01,0,*45
1495296330.59,1469,20.63,73894.3,4.23,4.07,3.97,0,*4C
1495296331.76,1470,20.63,73890.5,4.23,3.89,3.85,0,*46
1495296332.98,1471,20.63,73888.5,4.25,3.93,4.01,0,*41
1495296334.15,1472,20.63,73878.0,4.23,3.85,3.89,0,*44
1495296335.32,1473,20.63,73878.3,4.23,3.85,3.89,0,*45
1495296336.5,1474,20.63,73876.8,4.23,3.89,3.89,0,*4E
1495296337.67,1475,20.63,73880.5,4.23,3.85,3.89,0,*43
1495296338.85,1476,20.63,73880.5,4.23,4.07,4.07,0,*4C
1495296340.04,1477,20.63,73880.0,4.25,4.15,4.11,0,*4F
1495296341.23,1478,20.63,73882.8,4.25,4.11,4.11,0,*44
1495296342.45,1479,20.63,73886.8,4.23,4.01,3.97,0,*4B
1495296343.67,1480,20.63,73890.8,4.23,4.01,4.05,0,*41
1495296344.84,1481,20.63,73882.8,4.23,4.07,4.07,0,*44
1495296346.06,1482,20.63,73882.0,4.25,4.05,4.11,0,*44
1495296347.27,1483,20.63,73884.8,4.23,4.01,4.01,0,*46
1495296348.49,1484,20.63,73890.5,4.23,4.01,4.01,0,*41
1495296349.7,1485,20.63,73888.0,4.23,3.97,4.01,0,*48
1495296350.92,1486,20.63,73890.5,4.23,4.01,4.01,0,*43
1495296352.14,1487,20.63,73888.3,4.23,4.05,3.97,0,*4E
1495296353.35,1488,20.63,73886.8,4.23,3.97,4.01,0,*45
1495296354.55,1489,20.63,73890.5,4.25,3.89,3.89,0,*4A
1495296355.75,1490,20.63,73886.5,4.23,3.89,3.79,0,*4B
1495296356.97,1491,20.63,73882.3,4.23,4.01,3.97,0,*4D
1495296358.18,1492,20.63,73892.5,4.23,3.97,4.01,0,*4E
1495296359.39,1493,20.63,73892.8,4.23,4.01,4.01,0,*47
1495296360.63,1494,20.63,73890.8,4.25,4.01,4.01,0,*46
1495296361.83,1495,20.63,73882.8,4.25,3.93,3.93,0,*47
1495296363.03,1496,20.63,73882.0,4.23,3.89,3.97,0,*4D
1495296364.24,1497,20.63,73884.0,4.23,3.97,4.01,0,*4B
1495296365.42,1498,20.63,73894.0,4.23,4.07,4.07,0,*4C
1495296366.61,1499,20.63,73892.5,4.23,4.01,4.07,0,*4B
1495296367.83,1500,20.63,73892.8,4.23,3.97,3.97,0,*4C
1495296369.03,1501,20.63,73892.5,4.23,4.05,3.89,0,*4E
1495296370.2,1502,20.63,73888.5,4.23,3.89,3.93,0,*45
1495296371.42,1503,20.63,73888.5,4.25,3.93,4.01,0,*45
1495296372.64,1504,20.63,73886.5,4.25,4.05,4.11,0,*4B
1495296373.84,1505,20.63,73884.3,4.23,4.01,4.07,0,*4F
1495296375.03,1506,20.63,73884.8,4.25,4.11,4.15,0,*48
1495296376.2,1507,20.63,73894.5,4.23,4.07,4.11,0,*4C
1495296377.42,1508,20.63,73892.8,4.25,4.05,4.11,0,*47
1495296378.59,1509,20.63,73882.3,4.23,3.85,3.89,0,*49
1495296379.8,1510,20.63,73878.8,4.23,4.01,4.01,0,*4D
1495296381.05,1511,20.63,73878.0,4.25,4.05,4.05,0,*4A
1495296382.3,1512,20.63,73884.3,4.25,4.05,4.05,0,*49
1495296383.52,1513,20.63,73888.0,4.23,3.97,4.01,0,*46
1495296384.69,1514,20.63,73882.3,4.23,4.07,4.11,0,*4E
1495296385.86,1515,20.63,73888.8,4.23,4.07,4.11,0,*4F
1495296387.09,1516,20.63,73888.3,4.25,4.01,4.01,0,*4D
1495296388.33,1517,20.63,73880.0,4.25,4.01,4.01,0,*4C
1495296389.53,1518,20.63,73876.0,4.25,3.89,3.93,0,*48
1495296390.78,1519,20.63,73888.5,4.25,4.05,4.05,0,*42
1495296392.02,1520,20.63,73890.0,4.25,4.05,4.01,0,*4C
1495296393.22,1521,20.63,73876.8,4.25,3.81,3.81,0,*49
1495296394.44,1522,20.63,73884.8,4.25,3.79,3.81,0,*4D
1495296395.64,1523,20.63,73882.3,4.25,3.89,3.89,0,*4B
1495296396.82,1524,20.63,73882.8,4.23,3.89,3.89,0,*4A
1495296398.03,1525,20.63,73882.3,4.23,4.01,4.01,0,*4B
1495296399.23,1526,20.63,73882.8,4.23,3.97,3.89,0,*47
1495296400.44,1527,20.63,73878.0,4.23,4.01,4.01,0,*49
1495296401.66,1528,20.63,73888.5,4.23,4.01,4.01,0,*46
1495296402.85,1529,20.63,73894.3,4.25,4.11,4.11,0,*41
1495296404.09,1530,20.63,73878.0,4.25,4.05,4.01,0,*4D
1495296405.33,1531,20.63,73882.8,4.25,4.01,4.01,0,*48
1495296406.57,1532,20.63,73884.0,4.25,4.01,4.05,0,*4F
1495296407.78,1533,20.63,73886.5,4.25,4.01,4.11,0,*4B
1495296408.98,1534,20.63,73892.5,4.25,4.15,4.15,0,*4D
1495296410.15,1535,20.63,73888.5,4.23,4.11,4.11,0,*4A
1495296411.34,1536,20.63,73882.8,4.25,4.15,4.15,0,*4F
1495296412.53,1537,20.63,73880.3,4.25,4.11,4.15,0,*4A
1495296413.73,1538,20.63,73876.8,4.25,4.11,4.11,0,*41
1495296414.92,1539,20.63,73882.0,4.25,4.11,4.15,0,*44
1495296416.09,1540,20.63,73886.0,4.23,4.11,4.11,0,*48
1495296417.25,1541,20.63,73878.5,4.27,4.11,4.11,0,*4D
1495296418.43,1542,20.63,73888.3,4.29,4.07,4.19,0,*4F
1495296419.59,1543,20.63,73888.5,4.27,4.11,4.11,0,*4F
1495296420.81,1544,20.63,73890.3,4.27,4.01,4.05,0,*4C
1495296422.0,1545,20.63,73892.5,4.27,4.05,4.11,0,*4C
1495296423.16,1546,20.63,73890.0,4.27,4.11,4.11,0,*4A
1495296424.34,1547,20.63,73878.0,4.27,3.89,3.93,0,*40
1495296425.52,1548,20.63,73884.0,4.29,4.15,4.07,0,*49
1495296426.69,1549,20.63,73876.8,4.29,4.19,4.19,0,*4B
1495296427.85,1550,20.63,73874.3,4.27,4.15,4.15,0,*4D
1495296429.02,1551,20.63,73876.8,4.29,4.19,4.19,0,*42
1495296430.19,1552,20.63,73878.8,4.27,4.11,4.15,0,*4B
1495296431.37,1553,20.63,73874.5,4.29,4.15,4.15,0,*40
1495296432.54,1554,20.63,73872.8,4.29,4.15,4.15,0,*47
1495296433.72,1555,20.63,73872.3,4.29,4.15,4.15,0,*46
1495296434.89,1556,20.63,73872.5,4.29,4.15,4.15,0,*45
1495296436.1,1557,20.63,73866.0,4.29,4.05,4.07,0,*46
1495296437.29,1558,20.63,73870.3,4.27,4.05,4.15,0,*44
1495296438.46,1559,20.63,73880.0,4.29,4.19,4.19,0,*4A
1495296439.64,1560,20.63,73890.8,4.29,4.15,4.15,0,*40
1495296440.87,1561,20.63,73886.5,4.29,4.05,4.05,0,*41
1495296442.05,1562,20.63,73874.5,4.29,3.89,3.93,0,*49
1495296443.25,1563,20.63,73874.5,4.29,4.05,4.19,0,*4E
1495296444.42,1564,20.63,73876.0,4.29,4.15,4.19,0,*48
1495296445.59,1565,20.63,73880.3,4.29,4.19,4.27,0,*48
1495296446.82,1566,20.63,73888.8,4.31,4.23,4.31,0,*4C
1495296448.03,1567,20.63,73880.5,4.31,4.07,4.07,0,*4E
1495296449.23,1568,20.63,73872.3,4.31,4.23,4.23,0,*41
1495296450.43,1569,20.63,73870.0,4.31,4.23,4.23,0,*40
1495296451.68,1570,20.63,73876.0,4.31,4.31,4.31,0,*48
1495296452.89,1571,20.63,73872.5,4.31,4.33,4.37,0,*4D
1495296454.13,1572,20.63,73886.0,4.31,4.31,4.37,0,*4C
1495296455.32,1573,20.63,73876.0,4.31,4.23,4.23,0,*4B
1495296456.5,1574,20.63,73882.5,4.33,4.23,4.23,0,*4E
1495296457.67,1575,20.63,73880.3,4.33,4.23,4.23,0,*4F
1495296458.87,1576,20.63,73880.5,4.31,4.23,4.23,0,*4E
1495296460.05,1577,20.63,73880.0,4.33,4.33,4.37,0,*49
1495296461.22,1578,20.63,73870.0,4.33,4.23,4.19,0,*4B
1495296462.42,1579,20.63,73870.0,4.33,4.07,4.01,0,*45
1495296463.59,1580,20.63,73870.0,4.33,4.19,4.23,0,*4C
1495296464.8,1581,20.63,73874.5,4.33,4.33,4.31,0,*46
1495296465.98,1582,20.63,73884.0,4.33,4.37,4.37,0,*47
1495296467.15,1583,20.63,73882.8,4.33,4.19,4.23,0,*4F
1495296468.33,1584,20.63,73876.3,4.33,4.07,4.11,0,*46
1495296469.5,1585,20.63,73878.0,4.33,4.23,4.23,0,*40
1495296470.68,1586,20.63,73880.3,4.33,4.37,4.37,0,*43
1495296471.87,1587,20.63,73882.0,4.33,4.37,4.37,0,*42
1495296473.07,1588,20.63,73876.8,4.35,4.37,4.37,0,*4B
1495296474.28,1589,20.63,73878.8,4.35,4.37,4.41,0,*4B
1495296475.48,1590,20.63,73876.3,4.35,4.33,4.33,0,*42
1495296476.68,1591,20.63,73876.0,4.35,4.33,4.33,0,*43
1495296477.88,1592,20.63,73872.8,4.35,4.33,4.33,0,*40
1495296479.05,1593,20.63,73876.8,4.41,4.45,4.41,0,*46
1495296480.26,1594,20.63,73872.0,4.39,4.37,4.37,0,*4A
1495296481.46,1595,20.63,73874.0,4.39,4.33,4.33,0,*4B
1495296482.64,1596,20.63,73878.8,4.41,4.37,4.37,0,*47
1495296483.81,1597,20.63,73872.5,4.41,4.27,4.27,0,*46
1495296485.0,1598,20.63,73870.8,4.39,4.27,4.23,0,*42
1495296486.19,1599,20.63,73878.0,4.39,4.27,4.27,0,*47
1495296487.39,1600,20.63,73882.8,4.39,4.27,4.27,0,*44
1495296488.58,1601,20.63,73880.5,4.39,4.27,4.27,0,*45
1495296489.8,1602,20.63,73884.8,4.39,3.93,4.01,0,*4A
1495296491.04,1603,20.63,73884.8,4.39,4.01,4.05,0,*43
1495296492.29,1604,20.63,73878.8,4.39,4.05,4.01,0,*44
1495296493.49,1605,20.63,73882.5,4.35,3.81,3.89,0,*45
1495296494.68,1606,20.63,73884.5,4.39,4.15,4.11,0,*46
1495296495.87,1607,20.63,73884.5,4.39,4.27,4.27,0,*43
1495296497.07,1608,20.63,73880.0,4.35,4.23,4.23,0,*40
1495296498.29,1609,20.63,73886.0,4.39,4.11,4.05,0,*48
1495296499.48,1610,20.63,73892.3,4.39,4.23,4.27,0,*41
1495296500.68,1611,20.63,73898.8,4.39,4.15,4.15,0,*44
1495296501.92,1612,20.63,73892.0,4.39,4.01,4.01,0,*47
1495296503.17,1613,20.63,73888.8,4.35,4.05,4.05,0,*4A
1495296504.39,1614,20.63,73888.3,4.39,4.05,4.11,0,*44
1495296505.58,1615,20.63,73890.3,4.39,4.11,4.15,0,*44
1495296506.78,1616,20.63,73886.0,4.39,4.15,4.15,0,*43
1495296507.97,1617,20.63,73886.5,4.35,4.23,4.27,0,*4A
1495296509.16,1618,20.63,73894.5,4.39,4.27,4.27,0,*4D
1495296510.35,1619,20.63,73894.3,4.39,4.23,4.15,0,*49
1495296511.54,1620,20.63,73890.0,4.39,4.23,4.27,0,*42
1495296512.74,1621,20.63,73882.8,4.35,4.23,4.23,0,*4B
1495296513.93,1622,20.63,73884.0,4.39,4.23,4.23,0,*44
1495296515.13,1623,20.63,73892.5,4.39,4.27,4.15,0,*44
1495296516.32,1624,20.63,73888.3,4.39,4.23,4.23,0,*42
1495296517.52,1625,20.63,73882.0,4.39,3.89,3.89,0,*43
1495296518.74,1626,20.63,73878.0,4.39,3.93,4.01,0,*4C
1495296519.94,1627,20.63,73890.8,4.39,4.15,4.23,0,*44
1495296521.13,1628,20.63,73884.0,4.39,4.23,4.23,0,*4E
1495296522.33,1629,20.63,73886.3,4.39,4.15,4.15,0,*4F
1495296523.49,1630,20.63,73892.0,4.41,4.19,4.15,0,*44
1495296524.73,1631,20.63,73892.3,4.39,4.01,4.01,0,*46
1495296525.95,1632,20.56,73890.8,4.39,3.93,4.01,0,*49
1495296527.15,1633,20.63,73892.3,4.39,3.81,3.81,0,*44
1495296528.35,1634,20.56,73890.3,4.39,3.93,3.93,0,*43
1495296529.55,1635,20.63,73892.0,4.39,4.15,4.15,0,*42
1495296530.74,1636,20.63,73886.0,4.39,4.23,4.23,0,*41
1495296531.94,1637,20.63,73888.8,4.39,4.11,4.15,0,*44
1495296533.13,1638,20.63,73888.0,4.39,4.15,4.27,0,*4E
1495296534.32,1639,20.63,73886.8,4.35,4.23,4.27,0,*46
1495296535.51,1640,20.63,73886.0,4.39,4.27,4.27,0,*40
1495296536.7,1641,20.63,73886.5,4.39,4.27,4.27,0,*41